EW1931 Weather Reports


time (UTC)temp
C
wind
direction
speed
KPH
gust
KPH
rain 1hr
cm
rain 24hr
cm
rain mn
cm
humidity
%
barometer
mb
20260831030110 15 263 30.6 38.6 0.00 0.15 0.00 48 1009.1
20260831024621 15 243 19.3 30.6 0.00 0.15 0.00 49 1009.0
20260831023032 15 260 22.5 35.4 0.00 0.15 0.00 48 1008.9
20260831021531 16 249 29.0 48.3 0.00 0.15 0.00 46 1008.8
20260831020012 16 263 35.4 48.3 0.00 0.15 0.00 45 1008.5
20260831014511 16 267 33.8 48.3 0.00 0.15 0.00 43 1008.5
20260831013110 16 270 32.2 53.1 0.00 0.33 0.00 44 1008.5
20260831011551 16 284 35.4 49.9 0.00 0.33 0.00 44 1008.5
20260831010034 17 269 40.2 56.3 0.00 0.33 0.00 42 1008.4
20260831004533 17 297 33.8 51.5 0.00 0.33 0.00 41 1008.4
20260831003015 18 277 40.2 61.2 0.00 0.33 0.00 41 1008.2
20260831001515 18 274 43.5 62.8 0.00 0.33 0.00 41 1008.2
20260831000057 17 273 33.8 61.2 0.00 0.33 0.00 40 1008.0
20260830234604 17 275 38.6 61.2 0.00 0.33 0.00 41 1008.0
20260830233039 18 244 35.4 49.9 0.00 0.33 0.00 40 1007.9
20260830231539 18 258 35.4 48.3 0.00 0.33 0.00 41 1008.0
20260830230021 17 235 33.8 45.1 0.00 0.33 0.00 42 1008.1
20260830224522 17 229 32.2 43.5 0.00 0.33 0.00 42 1008.2
20260830223002 17 232 35.4 48.3 0.00 0.33 0.00 40 1008.3
20260830221501 17 234 30.6 49.9 0.00 0.33 0.00 41 1008.4
20260830220043 17 232 33.8 48.3 0.00 0.33 0.00 42 1008.4
20260830214542 18 225 35.4 48.3 0.00 0.33 0.00 40 1008.3
20260830213024 18 261 41.8 62.8 0.00 0.33 0.00 39 1008.3
20260830211524 18 268 41.8 54.7 0.00 0.33 0.00 40 1008.1
20260830210006 18 243 33.8 54.7 0.00 0.33 0.00 41 1008.2
20260830204508 18 252 45.1 62.8 0.00 0.33 0.00 45 1008.2
20260830203100 17 283 38.6 57.9 0.00 0.33 0.00 47 1008.0
20260830201549 18 248 32.2 45.1 0.00 0.33 0.00 41 1008.0
20260830200029 18 259 25.7 45.1 0.00 0.33 0.00 40 1007.9
20260830194528 18 267 27.4 41.8 0.00 0.33 0.00 38 1007.8
20260830193011 18 274 27.4 51.5 0.00 0.33 0.00 37 1007.7
20260830191511 19 238 19.3 32.2 0.00 0.33 0.00 36 1007.7
20260830190109 19 234 17.7 38.6 0.00 0.33 0.00 37 1007.5
20260830184549 18 202 20.9 35.4 0.00 0.33 0.00 39 1007.7
20260830183055 18 231 25.7 33.8 0.00 0.33 0.00 39 1007.9
20260830181528 17 210 27.4 35.4 0.00 0.33 0.00 43 1007.9
20260830180025 17 227 19.3 33.8 0.00 0.33 0.00 51 1008.0
20260830174505 17 224 19.3 27.4 0.00 0.33 0.00 55 1008.0
20260830173006 16 235 14.5 29.0 0.00 0.33 0.00 54 1007.8
20260830171545 16 216 16.1 24.1 0.00 0.33 0.00 58 1007.9
20260830170036 15 206 16.1 24.1 0.00 0.33 0.00 69 1008.2
20260830164530 14 219 12.9 19.3 0.00 0.33 0.00 75 1008.1
20260830163017 14 215 12.9 16.1 0.00 0.33 0.33 80 1008.1
20260830161557 13 221 11.3 14.5 0.00 0.33 0.33 83 1007.9
20260830160056 13 222 11.3 16.1 0.00 0.33 0.33 84 1007.9
20260830154538 13 208 12.9 17.7 0.00 0.33 0.33 82 1008.0
20260830153037 14 190 9.7 11.3 0.00 0.33 0.33 80 1008.0
20260830151535 14 182 8.0 11.3 0.00 0.33 0.33 80 1008.1
20260830150020 14 175 3.2 6.4 0.00 0.33 0.33 78 1008.3
20260830144501 14 46 0.0 1.6 0.00 0.33 0.33 80 1008.2
20260830143002 13 46 0.0 3.2 0.00 0.33 0.33 85 1008.1
20260830141543 13 46 0.0 6.4 0.00 0.33 0.33 88 1008.1
20260830140043 13 46 1.6 9.7 0.00 0.33 0.33 88 1008.3
20260830134528 12 12 4.8 8.0 0.00 0.33 0.33 88 1008.6
20260830133025 12 36 0.0 4.8 0.00 0.33 0.33 86 1008.6
20260830131505 12 237 3.2 6.4 0.00 0.33 0.33 86 1008.4
20260830130004 12 142 6.4 11.3 0.00 0.33 0.33 87 1008.2
20260830124603 12 130 9.7 12.9 0.00 0.33 0.33 85 1007.9
20260830123049 13 206 9.7 12.9 0.00 0.33 0.33 85 1008.2
20260830121525 13 141 8.0 11.3 0.00 0.33 0.33 84 1007.8
20260830120025 13 238 6.4 12.9 0.00 0.33 0.33 83 1007.9
20260830114506 13 246 9.7 14.5 0.00 0.33 0.33 86 1007.9
20260830113009 12 232 11.3 20.9 0.00 0.33 0.33 87 1007.9
20260830111548 12 224 12.9 16.1 0.00 0.33 0.33 87 1007.5
20260830110048 12 252 4.8 6.4 0.00 0.33 0.33 86 1006.9
20260830104529 13 252 8.0 9.7 0.00 0.33 0.33 85 1007.2
20260830103029 13 192 4.8 9.7 0.00 0.33 0.33 83 1006.9
20260830101511 13 247 9.7 17.7 0.00 0.33 0.33 81 1007.1
20260830100011 13 249 9.7 14.5 0.00 0.33 0.33 83 1007.1
20260830094556 13 233 6.4 14.5 0.00 0.33 0.33 85 1007.3
20260830093051 13 240 14.5 27.4 0.00 0.33 0.33 83 1007.5
20260830091532 13 263 16.1 24.1 0.00 0.33 0.33 80 1007.2
20260830090040 13 263 25.7 41.8 0.00 0.33 0.33 81 1007.4
20260830084518 13 266 25.7 40.2 0.03 0.33 0.33 82 1007.4
20260830083032 13 269 33.8 43.5 0.08 0.33 0.33 87 1007.5
20260830081552 13 267 30.6 43.5 0.10 0.33 0.33 87 1007.4
20260830080050 13 252 29.0 38.6 0.15 0.33 0.33 86 1007.8
20260830074543 13 254 25.7 33.8 0.13 0.30 0.30 86 1007.8
20260830073031 14 250 22.5 35.4 0.08 0.25 0.25 85 1007.6
20260830071512 14 221 14.5 19.3 0.05 0.23 0.23 85 1007.0
20260830070013 14 209 14.5 17.7 0.00 0.18 0.18 85 1007.1
20260830064550 14 194 9.7 12.9 0.00 0.18 0.18 85 1006.8
20260830063049 13 213 11.3 12.9 0.00 0.18 0.18 85 1007.0
20260830061532 14 215 9.7 11.3 0.00 0.18 0.18 84 1007.1
20260830060033 15 169 6.4 8.0 0.00 0.18 0.18 82 1006.9
20260830054514 14 105 3.2 6.4 0.00 0.18 0.18 80 1006.9
20260830053010 14 52 0.0 3.2 0.00 0.18 0.18 81 1006.9
20260830051555 15 52 4.8 8.0 0.00 0.18 0.18 78 1007.0
20260830050057 15 241 0.0 0.0 0.00 0.18 0.18 78 1007.3
20260830044533 15 241 3.2 14.5 0.00 0.18 0.18 77 1007.7
20260830043032 14 239 17.7 22.5 0.00 0.18 0.18 84 1007.8
20260830041514 15 40 6.4 11.3 0.00 0.18 0.18 83 1007.1
20260830040015 15 360 4.8 8.0 0.00 0.18 0.18 82 1007.3
20260830034623 15 355 12.9 22.5 0.00 0.18 0.18 83 1006.9
20260830033100 15 46 6.4 11.3 0.00 0.18 0.18 82 1006.6
20260830031557 15 71 6.4 14.5 0.00 0.18 0.18 83 1006.5